| time (UTC) | temp F | wind direction | speed knots | gust knots | rain 1hr in | rain 24hr in | rain mn in | humidity % | barometer mb |
| 20260507174551 | 70 | 360 | 7.8 | 9.6 | 0.00 | 0.04 | 0.00 | 29 | 1013.5 |
| 20260507173028 | 70 | 360 | 6.1 | 8.7 | 0.00 | 0.04 | 0.00 | 30 | 1013.7 |
| 20260507171549 | 70 | 360 | 5.2 | 8.7 | 0.00 | 0.04 | 0.00 | 31 | 1014.0 |
| 20260507170025 | 68 | 360 | 7.0 | 11.3 | 0.00 | 0.09 | 0.00 | 33 | 1014.4 |
| 20260507164556 | 68 | 360 | 5.2 | 9.6 | 0.00 | 0.09 | 0.00 | 36 | 1014.4 |
| 20260507163023 | 67 | 360 | 6.1 | 10.4 | 0.00 | 0.09 | 0.00 | 38 | 1014.6 |
| 20260507161520 | 66 | 360 | 7.0 | 10.4 | 0.00 | 0.09 | 0.00 | 37 | 1014.8 |
| 20260507160030 | 64 | 360 | 7.8 | 10.4 | 0.00 | 0.09 | 0.00 | 41 | 1015.1 |
| 20260507154514 | 63 | 360 | 6.1 | 9.6 | 0.00 | 0.09 | 0.00 | 45 | 1015.1 |
| 20260507153047 | 62 | 360 | 7.0 | 11.3 | 0.00 | 0.09 | 0.00 | 42 | 1015.1 |
| 20260507151525 | 60 | 360 | 6.1 | 8.7 | 0.00 | 0.09 | 0.00 | 50 | 1015.4 |
| 20260507150022 | 58 | 360 | 6.1 | 9.6 | 0.00 | 0.11 | 0.00 | 52 | 1015.4 |
| 20260507144547 | 56 | 360 | 7.0 | 9.6 | 0.00 | 0.11 | 0.00 | 54 | 1015.5 |
| 20260507143030 | 54 | 360 | 4.3 | 8.7 | 0.00 | 0.11 | 0.00 | 62 | 1015.5 |
| 20260507141603 | 52 | 360 | 4.3 | 7.8 | 0.00 | 0.11 | 0.00 | 67 | 1015.5 |
| 20260507141502 | 52 | 360 | 5.2 | 7.8 | 0.00 | 0.11 | 0.00 | 67 | 1015.5 |
| 20260507140043 | 49 | 360 | 5.2 | 9.6 | 0.00 | 0.16 | 0.00 | 69 | 1015.7 |
| 20260507134527 | 47 | 360 | 5.2 | 9.6 | 0.00 | 0.16 | 0.00 | 73 | 1015.6 |
| 20260507133132 | 45 | 360 | 4.3 | 7.0 | 0.00 | 0.16 | 0.00 | 77 | 1015.7 |
| 20260507131548 | 43 | 360 | 4.3 | 7.0 | 0.00 | 0.16 | 0.00 | 80 | 1015.7 |
| 20260507130017 | 41 | 360 | 4.3 | 7.8 | 0.00 | 0.16 | 0.00 | 83 | 1015.6 |
| 20260507124539 | 39 | 360 | 4.3 | 7.8 | 0.00 | 0.16 | 0.00 | 85 | 1015.6 |
| 20260507123021 | 38 | 360 | 4.3 | 7.0 | 0.00 | 0.16 | 0.00 | 86 | 1015.7 |
| 20260507121611 | 37 | 360 | 4.3 | 7.0 | 0.00 | 0.16 | 0.00 | 86 | 1015.5 |
| 20260507120029 | 37 | 360 | 4.3 | 7.8 | 0.00 | 0.16 | 0.00 | 86 | 1015.6 |
| 20260507114510 | 37 | 360 | 3.5 | 5.2 | 0.00 | 0.16 | 0.00 | 86 | 1015.8 |
| 20260507113030 | 37 | 360 | 4.3 | 8.7 | 0.00 | 0.16 | 0.00 | 86 | 1016.0 |
| 20260507111507 | 37 | 360 | 4.3 | 8.7 | 0.00 | 0.16 | 0.00 | 87 | 1016.1 |
| 20260507110027 | 37 | 360 | 5.2 | 8.7 | 0.00 | 0.18 | 0.00 | 87 | 1016.3 |
| 20260507104506 | 37 | 360 | 4.3 | 7.0 | 0.00 | 0.18 | 0.00 | 87 | 1016.4 |
| 20260507103028 | 37 | 360 | 4.3 | 7.0 | 0.00 | 0.18 | 0.00 | 87 | 1016.5 |
| 20260507101514 | 37 | 360 | 5.2 | 8.7 | 0.00 | 0.18 | 0.00 | 88 | 1016.7 |
| 20260507100032 | 37 | 360 | 5.2 | 8.7 | 0.00 | 0.22 | 0.00 | 88 | 1017.0 |
| 20260507094508 | 38 | 360 | 6.1 | 8.7 | 0.00 | 0.22 | 0.00 | 88 | 1017.1 |
| 20260507093047 | 38 | 360 | 5.2 | 8.7 | 0.00 | 0.22 | 0.00 | 89 | 1017.1 |
| 20260507091509 | 37 | 360 | 4.3 | 9.6 | 0.00 | 0.22 | 0.00 | 90 | 1017.3 |
| 20260507090049 | 37 | 360 | 5.2 | 8.7 | 0.00 | 0.23 | 0.00 | 90 | 1017.4 |
| 20260507084531 | 36 | 360 | 4.3 | 8.7 | 0.00 | 0.23 | 0.00 | 91 | 1017.6 |
| 20260507083052 | 36 | 360 | 4.3 | 7.8 | 0.00 | 0.23 | 0.00 | 91 | 1017.8 |
| 20260507081533 | 36 | 360 | 4.3 | 7.8 | 0.00 | 0.23 | 0.00 | 91 | 1017.9 |
| 20260507080104 | 35 | 360 | 3.5 | 7.0 | 0.00 | 0.24 | 0.00 | 91 | 1018.1 |
| 20260507074532 | 35 | 360 | 3.5 | 7.0 | 0.00 | 0.24 | 0.00 | 91 | 1018.4 |
| 20260507073104 | 35 | 360 | 2.6 | 5.2 | 0.00 | 0.24 | 0.00 | 91 | 1018.6 |
| 20260507071531 | 35 | 360 | 3.5 | 4.3 | 0.00 | 0.24 | 0.00 | 91 | 1018.8 |
| 20260507070009 | 35 | 360 | 3.5 | 7.0 | 0.00 | 0.26 | 0.00 | 91 | 1019.0 |
| 20260507064543 | 35 | 360 | 3.5 | 5.2 | 0.00 | 0.26 | 0.00 | 91 | 1019.2 |
| 20260507063005 | 36 | 360 | 2.6 | 5.2 | 0.00 | 0.26 | 0.00 | 90 | 1019.4 |
| 20260507061559 | 36 | 360 | 2.6 | 4.3 | 0.00 | 0.26 | 0.00 | 90 | 1019.5 |
| 20260507061502 | 36 | 360 | 2.6 | 4.3 | 0.00 | 0.26 | 0.00 | 90 | 1019.5 |
| 20260507060037 | 36 | 360 | 1.7 | 5.2 | 0.00 | 0.32 | 0.26 | 91 | 1019.6 |
| 20260507054552 | 36 | 360 | 2.6 | 4.3 | 0.00 | 0.32 | 0.26 | 91 | 1019.9 |
| 20260507053035 | 36 | 360 | 2.6 | 3.5 | 0.00 | 0.32 | 0.26 | 91 | 1019.9 |
| 20260507051553 | 37 | 360 | 2.6 | 4.3 | 0.00 | 0.32 | 0.26 | 90 | 1020.1 |
| 20260507050034 | 38 | 360 | 2.6 | 4.3 | 0.00 | 0.42 | 0.26 | 90 | 1020.0 |
| 20260507044553 | 38 | 360 | 1.7 | 4.3 | 0.00 | 0.42 | 0.26 | 91 | 1020.1 |
| 20260507043040 | 38 | 360 | 0.9 | 3.5 | 0.00 | 0.42 | 0.26 | 91 | 1020.1 |
| 20260507041601 | 38 | 360 | 2.6 | 4.3 | 0.00 | 0.42 | 0.26 | 90 | 1020.5 |
| 20260507041502 | 38 | 360 | 2.6 | 4.3 | 0.00 | 0.42 | 0.26 | 90 | 1020.5 |
| 20260507040048 | 38 | 360 | 1.7 | 4.3 | 0.00 | 0.42 | 0.26 | 90 | 1020.6 |
| 20260507034516 | 39 | 360 | 2.6 | 3.5 | 0.00 | 0.42 | 0.26 | 90 | 1020.4 |
| 20260507033100 | 39 | 360 | 2.6 | 3.5 | 0.00 | 0.42 | 0.26 | 91 | 1020.6 |
| 20260507031520 | 39 | 360 | 0.9 | 2.6 | 0.00 | 0.42 | 0.26 | 90 | 1020.5 |
| 20260507030057 | 39 | 360 | 0.9 | 2.6 | 0.00 | 0.47 | 0.26 | 90 | 1020.5 |
| 20260507024524 | 39 | 360 | 0.0 | 1.7 | 0.00 | 0.47 | 0.26 | 89 | 1020.2 |
| 20260507023004 | 40 | 360 | 0.0 | 1.7 | 0.00 | 0.47 | 0.26 | 89 | 1020.4 |
| 20260507021530 | 40 | 360 | 0.0 | 1.7 | 0.00 | 0.47 | 0.26 | 88 | 1020.3 |
| 20260507020006 | 41 | 360 | 0.0 | 0.0 | 0.00 | 0.54 | 0.26 | 87 | 1020.2 |
| 20260507014547 | 42 | 360 | 0.0 | 0.0 | 0.00 | 0.54 | 0.26 | 86 | 1020.2 |
| 20260507013020 | 43 | 360 | 0.0 | 1.7 | 0.00 | 0.54 | 0.26 | 86 | 1020.1 |
| 20260507011549 | 43 | 360 | 0.9 | 2.6 | 0.00 | 0.54 | 0.26 | 86 | 1020.2 |
| 20260507010023 | 43 | 360 | 1.7 | 2.6 | 0.00 | 0.56 | 0.26 | 85 | 1020.2 |
| 20260507004559 | 44 | 360 | 1.7 | 4.3 | 0.00 | 0.56 | 0.26 | 85 | 1020.2 |
| 20260507003015 | 44 | 360 | 0.9 | 2.6 | 0.00 | 0.56 | 0.26 | 84 | 1020.1 |
| 20260507001552 | 44 | 360 | 1.7 | 4.3 | 0.00 | 0.56 | 0.26 | 85 | 1020.3 |
| 20260507000020 | 44 | 360 | 1.7 | 3.5 | 0.00 | 0.56 | 0.26 | 86 | 1020.1 |
| 20260506234504 | 44 | 360 | 1.7 | 3.5 | 0.01 | 0.56 | 0.26 | 87 | 1020.4 |
| 20260506233031 | 44 | 360 | 0.9 | 3.5 | 0.02 | 0.56 | 0.26 | 89 | 1020.4 |
| 20260506231559 | 44 | 360 | 1.7 | 4.3 | 0.03 | 0.56 | 0.26 | 91 | 1020.4 |
| 20260506230045 | 43 | 360 | 0.0 | 1.7 | 0.03 | 0.56 | 0.26 | 91 | 1020.4 |
| 20260506224517 | 42 | 360 | 0.0 | 2.6 | 0.02 | 0.56 | 0.25 | 89 | 1020.5 |
| 20260506223043 | 42 | 360 | 0.0 | 3.5 | 0.01 | 0.55 | 0.24 | 88 | 1020.7 |
| 20260506221518 | 43 | 360 | 2.6 | 5.2 | 0.00 | 0.54 | 0.23 | 86 | 1020.7 |
| 20260506220042 | 44 | 360 | 3.5 | 5.2 | 0.00 | 0.56 | 0.23 | 85 | 1020.6 |
| 20260506214540 | 44 | 360 | 1.7 | 3.5 | 0.00 | 0.56 | 0.23 | 85 | 1020.6 |
| 20260506213111 | 44 | 360 | 0.9 | 4.3 | 0.00 | 0.56 | 0.23 | 83 | 1020.8 |
| 20260506211524 | 45 | 360 | 0.9 | 3.5 | 0.00 | 0.56 | 0.23 | 84 | 1021.0 |
| 20260506210042 | 46 | 360 | 0.0 | 4.3 | 0.00 | 0.61 | 0.23 | 83 | 1021.1 |
| 20260506204544 | 46 | 360 | 0.9 | 5.2 | 0.00 | 0.61 | 0.23 | 82 | 1021.1 |
| 20260506203020 | 45 | 360 | 0.9 | 5.2 | 0.00 | 0.61 | 0.23 | 81 | 1021.1 |
| 20260506201555 | 44 | 360 | 0.9 | 4.3 | 0.00 | 0.61 | 0.23 | 84 | 1021.0 |
| 20260506200038 | 45 | 360 | 0.9 | 5.2 | 0.00 | 0.61 | 0.23 | 84 | 1021.1 |
| 20260506194509 | 45 | 360 | 0.9 | 4.3 | 0.00 | 0.61 | 0.23 | 86 | 1021.1 |
| 20260506193044 | 44 | 360 | 0.9 | 4.3 | 0.00 | 0.61 | 0.23 | 87 | 1021.1 |
| 20260506191556 | 44 | 360 | 1.7 | 3.5 | 0.00 | 0.61 | 0.23 | 87 | 1021.4 |
| 20260506190036 | 42 | 360 | 1.7 | 3.5 | 0.00 | 0.62 | 0.23 | 88 | 1021.7 |
| 20260506184537 | 42 | 360 | 0.9 | 3.5 | 0.01 | 0.62 | 0.23 | 91 | 1021.8 |
| 20260506183057 | 42 | 360 | 0.9 | 2.6 | 0.01 | 0.62 | 0.23 | 92 | 1022.0 |
| 20260506181555 | 41 | 360 | 0.0 | 3.5 | 0.01 | 0.62 | 0.23 | 94 | 1022.0 |
| 20260506180007 | 40 | 360 | 0.0 | 2.6 | 0.01 | 0.63 | 0.23 | 94 | 1022.2 |